Regional Weather Roundup
Issued by NWS

Home | Current Version | Previous Version | Text Only | Print | Product List | Glossary Off
Versions: 1 2 3 4 5 6 7 8 9 10 11 12 13 14 15 16 17 18 19 20 21 22 23 24 25 26 27 28 29 30 31 32 33 34 35 36 37 38 39 40 41 42 43 44 45 46 47 48 49 50

000
ASUS43 KMPX 201210
RWRMN
WEATHER ROUNDUP FOR MINNESOTA
NATIONAL WEATHER SERVICE TWIN CITIES/CHANHASSEN MN
600 AM CST MON NOV 20 2017


NOTE: "FAIR" INDICATES FEW OR NO CLOUDS BELOW 12,000 FEET WITH NO
SIGNIFICANT WEATHER AND/OR OBSTRUCTIONS TO VISIBILITY. N/A MEANS
CURRENT SKY AND/OR WEATHER CONDITIONS ARE NOT AVAILABLE.

MNZ060>063-068>070-201300-
   Twin Cities Metro

CITY           SKY/WX    TMP DP  RH WIND       PRES   REMARKS
TWIN CITIES    CLOUDY    29  26  89 SE7       29.68F WCI  22
6HR MIN TEMP:  28; 6HR MAX TEMP:  37;

ST PAUL        CLOUDY    29  26  89 SE7       29.70F WCI  22
CRYSTAL        CLOUDY    30  23  75 SE5       29.66F WCI  25
BLAINE         CLOUDY    30  27  86 S6        29.66F WCI  24
LAKEVILLE      CLOUDY    28  27  93 S6        29.68F WCI  22
EDEN PRAIRIE   CLOUDY    31  25  78 S8        29.67F WCI  23
6HR MIN TEMP:  31; 6HR MAX TEMP:  35;

SOUTH ST PAUL  CLOUDY    31  27  86 CALM      29.69F
LAKE ELMO      FAIR      30  28  93 S6        29.70S WCI  24
$$
MNZ001>005-007-008-013>017-022>024-027-028-201300-
   Northwest Minnesota

CITY           SKY/WX    TMP DP  RH WIND       PRES   REMARKS
BEMIDJI        CLOUDY    21  20  93 SE3       29.53F
HALLOCK        CLOUDY    30  27  86 S16       29.42F WCI  19
ROSEAU         CLOUDY    28  23  80 SE10      29.45F WCI  19
WARROAD        CLOUDY    27  21  80 SE7       29.47F WCI  19
THIEF RVR FALL CLOUDY    28  24  85 S12       29.47F WCI  18
CROOKSTON      CLOUDY    30  25  80 S16G24    29.47F WCI  19
FOSSTON        CLOUDY    30  25  80 SE8       29.50F WCI  23
DETROIT LAKES  CLOUDY    30  27  86 S9        29.53F WCI  22
MOORHEAD       CLOUDY    28  23  80 S14       29.52F WCI  17
PARK RAPIDS    CLOUDY    24  21  88 SE7       29.55F WCI  16
MAHNOMEN       FAIR      29  23  78 S7        29.50F WCI  22
$$
MNZ006-009>011-018-025>026-201300-
   North Central Minnesota

CITY           SKY/WX    TMP DP  RH WIND       PRES   REMARKS
BAUDETTE       CLOUDY    19  16  88 SE7       29.50F WCI  10
FLAG ISLAND    CLOUDY    21  18  86 SE12      29.47F WCI   9
INTL FALLS     CLOUDY    18  14  84 SE6       29.57F WCI  10
6HR MIN TEMP:  13; 6HR MAX TEMP:  19;

WASKISH        CLOUDY    27  23  86 SE5       29.53F WCI  21
BIG FORK       CLOUDY    23  19  86 S5        29.56F WCI  17
LONGVILLE      CLOUDY    18  18 100 CALM      29.58F
GRAND RAPIDS   CLOUDY    20  18  92 SE6       29.61F WCI  12
CRANE LAKE     CLOUDY    12  12 100 CALM      29.62F
ORR            CLOUDY    19  16  86 SE3       29.56F
COOK           CLOUDY    18  16  93 CALM      29.60F
WALKER         FAIR      26  23  89 SE5       29.56F WCI  20
$$
MNZ012-019>021-037-201300-
   Northeast Minnesota

CITY           SKY/WX    TMP DP  RH WIND       PRES   REMARKS
DULUTH         CLOUDY    21  19  92 E7        29.64F WCI  12
6HR MIN TEMP:  18; 6HR MAX TEMP:  22;

ELY            CLOUDY    21  19  93 SE5       29.61F WCI  15
HIBBING        CLOUDY    14  12  92 CALM      29.62F
EVELETH        CLOUDY    18  14  86 CALM      29.64F
DULUTH HARBOR  CLOUDY    23  19  86 CALM      29.70S
TWO HARBORS    CLOUDY    25  19  80 N5        29.65F WCI  19
SILVER BAY     CLOUDY    16  14  93 CALM      29.66F
GRAND MARAIS     N/A     27  21  78 NE8       29.72F WCI  19
G MARAIS ARPRT CLOUDY    19  16  86 E3        29.65F
$$
MNZ029>031-032-039>041-046>048-054>057-064-201300-
   West Central Minnesota

CITY           SKY/WX    TMP DP  RH WIND       PRES   REMARKS
FERGUS FALLS   CLOUDY    30  25  80 SE8       29.58F WCI  23
WHEATON        CLOUDY    30  23  74 SE9       29.57F WCI  22
MORRIS         CLOUDY    27  21  80 SE9       29.57F WCI  17
ALEXANDRIA     CLOUDY    28  23  81 SE7       29.59F WCI  21
ELBOW LAKE     FAIR      29  24  81 E8        29.57F WCI  21
WADENA         CLOUDY    21  19  93 S5        29.56F WCI  15
GLENWOOD       CLOUDY    25  21  86 SE7       29.60F WCI  17
APPLETON       CLOUDY    28  21  74 CALM      29.58F
BENSON         CLOUDY    28  23  80 S6        29.60F WCI  22
ORTONVILLE     CLOUDY    27  21  80 MISG      29.57F
MADISON        CLOUDY    30  25  80 S6        29.59S WCI  24
WILLMAR        FAIR      27  25  93 E7        29.62F WCI  19
$$
MNZ033>034-036-042>043-049>051-058-059-201300-
   Central Minnesota

CITY           SKY/WX    TMP DP  RH WIND       PRES   REMARKS
ST CLOUD       CLOUDY    25  23  92 SE5       29.64F WCI  19
6HR MIN TEMP:  21; 6HR MAX TEMP:  27;

SAUK CENTRE    FAIR      26  22  86 SE5       29.62S WCI  20
PAYNESVILLE    PTCLDY    30  26  86 CALM      29.63F
AITKIN         CLOUDY    18  16  93 CALM      29.59F
PINE RIVER     CLOUDY    21  19  93 CALM      29.62F
BRAINERD       CLOUDY    23  19  85 S7        29.60F WCI  15
STAPLES        CLOUDY    21  21 100 S5        29.58F WCI  15
LONG PRAIRIE   FAIR      23  23 100 CALM      29.62F
LITTLE FALLS   CLOUDY    23  19  86 CALM      29.63F
LITCHFIELD     CLOUDY    28  27  93 SE3       29.64F
BUFFALO        CLOUDY    29  25  84 S3        29.67F
MAPLE LAKE     CLOUDY    28  26  92 CALM      29.66F
HUTCHINSON     CLOUDY    27  25  90 SE5       29.65F WCI  22
$$
MNZ037-044-045-052-053-201300-
   East Central Minnesota

CITY           SKY/WX    TMP DP  RH WIND       PRES   REMARKS
PRINCETON      CLOUDY    27  25  93 CALM      29.65F
MORA           CLOUDY    19  18  93 CALM      29.67F
CAMBRIDGE      CLOUDY    28  25  86 S5        29.67S WCI  23
RUSH CITY      CLOUDY    26  23  89 SE3       29.67F
MOOSE LAKE     CLOUDY    18  14  86 CALM      29.64F
HINCKLEY       FAIR      19  19 100 CALM      29.66F
CLOQUET        CLOUDY    19  16  86 E3        29.64F
MCGREGOR       CLOUDY    23  23 100 SE3       29.62F
$$
MNZ071>073-080-081-089-090-097-098-201300-
   Southwest Minnesota

CITY           SKY/WX    TMP DP  RH WIND       PRES   REMARKS
MONTEVIDEO     CLOUDY    30  25  80 S5        29.59F WCI  25
GRANITE FALLS  CLOUDY    29  24  79 SE7       29.62F WCI  22
CANBY          CLOUDY    31  25  79 CALM      29.59F
MARSHALL       CLOUDY    34  23  64 S8        29.60F WCI  27
REDWOOD FALLS  CLOUDY    27  21  78 S9        29.62F WCI  18
OLIVIA         CLOUDY    30  25  80 SE7       29.61F WCI  23
PIPESTONE      CLOUDY    28  23  80 S7        29.61F WCI  21
WINDOM         CLOUDY    34  19  55 S6        29.64F WCI  29
WORTHINGTON    CLOUDY    33  24  69 S15       29.63F WCI  23
JACKSON        CLOUDY    32  27  80 S12       29.66F WCI  23
TRACY          CLOUDY    36  27  69 SW16      29.60F
SLAYTON        CLOUDY    32  25  76 S13       29.63F WCI  22
$$
MNZ065>067-074>077-082>085-091>093-201300-
   South Central Minnesota

CITY           SKY/WX    TMP DP  RH WIND       PRES   REMARKS
MANKATO        CLOUDY    29  26  89 S9        29.68F WCI  20
NEW ULM        CLOUDY    28  23  80 CALM      29.64F
ST JAMES       CLOUDY    30  25  80 S9        29.67F WCI  22
FAIRMONT       CLOUDY    28  24  85 S12       29.68F WCI  18
GLENCOE        CLOUDY    30  27  88 SE3       29.65F
FARIBAULT      CLOUDY    30  27  86 S7        29.69F WCI  23
OWATONNA       CLOUDY    32  27  80 S14       29.69F WCI  22
WASECA         CLOUDY    32  28  86 S7        29.71F WCI  26
ALBERT LEA     CLOUDY    34  25  69 S7        29.72F WCI  28
$$
MNZ078>079-086>088-094>096-201300-
   Southeast Minnesota

CITY           SKY/WX    TMP DP  RH WIND       PRES   REMARKS
ROCHESTER      CLOUDY    30  26  85 S13       29.73F WCI  20
6HR MIN TEMP:  29; 6HR MAX TEMP:  32;

RED WING       CLOUDY    30  25  80 SE3       29.71F
STANTON        CLOUDY    33  27  81 S8        29.68F WCI  25
DODGE CENTER   CLOUDY    30  25  80 S10       29.71F WCI  21
WINONA         CLOUDY    34  28  80 SE3       29.76F
PRESTON        CLOUDY    30  26  83 SW13      29.75F WCI  20
$$
ABBREVIATIONS USED IN REMARKS
   TC - TEMPERATURES IN CELSIUS
  WCI - WIND CHILL INDEX
   HX - HEAT INDEX
  VSB - VISIBILITY
$$




USA.gov is the U.S. government's official web portal to all federal, state and local government web resources and services.